[[{"header":{"parameterUnit":"m.s-1","parameterCategory":1,"la1":30.2991,"la2":30.254,"lo1":-89.0895,"lo2":-89.0444,"dy":0.0017,"dx":0.0017,"nx":28,"ny":28,"refTime":"2025-06-22T09:00:00:Z","depth":0,"parameterNumber":2,"parameterNumberName":"U-component_of_WINDS"},"data":[0,0,0,0,0,0,0,0,0,0,0,0,0,0,0,0,0,0,0,0,0,0,0,0,0,0,0,0,0,0,0,0,0,0,0,0,0,0,0,0,0,0,0,0,0,0,0,0,0,0,0,0,0,0,0,0,0,0,-3.25,-3.2499,0,-3.2422,-3.2421,-3.242,-3.231,-3.2308,-3.2306,-3.2305,-3.2226,-3.2225,-3.2225,0,0,0,0,0,0,0,0,0,0,0,0,0,-3.2557,-3.2556,-3.25,-3.2499,-3.2498,-3.2422,-3.2421,-3.242,-3.231,-3.2308,-3.2306,-3.2304,-3.2226,-3.2225,-3.2225,0,0,0,0,0,0,0,0,0,0,0,0,0,-3.2511,-3.2556,-3.25,-3.2434,-3.2428,-3.2422,-3.2421,-3.242,-3.2311,-3.2308,-3.2305,-3.2303,-3.2226,-3.2225,-3.2225,-3.2278,0,0,-3.2223,-3.2223,0,0,0,0,0,0,0,0,-3.2514,-3.2509,-3.2445,-3.2439,-3.2431,-3.2373,-3.2412,-3.2372,-3.2312,-3.2355,-3.2305,-3.2301,-3.2277,-3.2272,-3.2264,-3.2275,-3.2271,-3.2223,-3.2223,-3.2223,-3.2223,0,0,0,0,0,0,0,-3.2517,-3.2512,-3.2469,-3.2444,-3.2436,-3.2409,-3.24,-3.2404,-3.2333,-3.2351,-3.2343,-3.2335,-3.2273,-3.2264,-3.2261,-3.227,-3.2223,-3.2223,-3.2222,-3.2222,-3.2323,-3.2326,0,0,0,0,0,0,-3.253,-3.2515,-3.2472,-3.2467,-3.2466,-3.2411,-3.24,-3.2395,-3.2333,-3.232,-3.2338,-3.2331,-3.2267,-3.2262,-3.2258,-3.2317,-3.2223,-3.2222,-3.2222,-3.232,-3.2324,-3.2327,0,0,0,0,0,0,-3.2531,-3.2527,-3.2475,-3.2489,-3.248,-3.2413,-3.2408,-3.2395,-3.2386,-3.2322,-3.2309,-3.2342,-3.2264,-3.2259,-3.2274,-3.2313,-3.2222,-3.2222,-3.2317,-3.2321,-3.2325,-3.2436,0,0,0,0,0,0,-3.2533,-3.2528,-3.2547,-3.249,-3.248,-3.2492,-3.241,-3.2395,-3.2385,-3.2375,-3.2323,-3.2312,-3.2262,-3.2276,-3.2274,-3.231,-3.2221,-3.2313,-3.2319,-3.2324,-3.2428,-3.2443,-3.2456,0,0,0,0,0,-3.2536,-3.2581,-3.2548,-3.2544,-3.2502,-3.2495,-3.2489,-3.243,-3.2389,-3.2408,-3.2367,-3.2313,-3.2309,-3.2278,-3.2275,-3.2312,-3.231,-3.2317,-3.2323,-3.2422,-3.244,-3.2456,0,0,0,0,0,0,-3.2643,-3.2572,-3.2535,-3.2563,-3.2536,-3.2476,-3.2497,-3.2451,-3.2435,-3.2426,-3.2354,-3.2343,-3.2368,-3.2342,-3.2309,-3.2362,-3.2302,-3.2308,-3.2378,-3.2395,-3.2408,-3.2414,-3.2221,0,0,0,0,0,-3.2671,-3.267,-3.2608,-3.2639,-3.2627,-3.2565,-3.256,-3.2517,-3.2486,-3.2474,-3.2434,-3.2407,-3.2399,-3.2396,-3.2385,-3.2425,-3.2412,-3.2449,-3.2463,-3.2475,-3.2481,-3.2501,-3.2517,-3.2349,-3.2349,-3.2349,0,0,-3.2726,-3.2687,-3.2691,-3.2659,-3.2633,-3.2635,-3.2556,-3.2561,-3.2562,-3.2474,-3.2487,-3.2458,-3.2422,-3.2451,-3.2461,-3.2429,-3.2525,-3.2483,-3.2493,-3.2493,-3.251,-3.2526,-3.254,-3.2353,-3.2353,-3.2352,0,0,-3.2828,-3.2799,-3.2821,-3.2797,-3.2759,-3.2718,-3.2724,-3.2672,-3.2649,-3.2661,-3.2596,-3.2597,-3.2585,-3.2563,-3.255,-3.2648,-3.2598,-3.2647,-3.2719,-3.274,-3.2753,-3.2765,-3.28,-3.2814,-3.2653,-3.2653,-3.2654,0,-3.2902,-3.2902,-3.2839,-3.2849,-3.2837,-3.2759,-3.2782,-3.2762,-3.2723,-3.2717,-3.2683,-3.2668,-3.2638,-3.2661,-3.2685,-3.2677,-3.2683,-3.2651,-3.2756,-3.2767,-3.2777,-3.281,-3.2823,-3.266,-3.2659,-3.2658,-3.2658,0,-3.2995,-3.2996,-3.3019,-3.2984,-3.2975,-3.2992,-3.2932,-3.2932,-3.2891,-3.2854,-3.2868,-3.2831,-3.2812,-3.2815,-3.2774,-3.2833,-3.2814,-3.277,-3.2707,-3.28,-3.283,-3.2842,-3.2668,-3.2666,-3.2664,-3.2663,0,0,-3.316,-3.3091,-3.3101,-3.3084,-3.3038,-3.3038,-3.3052,-3.3034,-3.3035,-3.3012,-3.3022,-3.3016,-3.2975,-3.296,-3.2918,-3.2936,-3.3017,-3.2888,-3.2887,-3.2914,-3.308,-3.3114,-3.313,-3.2985,-3.2987,-3.2989,-3.3083,0,-3.3252,-3.3271,-3.3217,-3.325,-3.3251,-3.3179,-3.3192,-3.3165,-3.3133,-3.313,-3.3093,-3.309,-3.3035,-3.3027,-3.3042,-3.3004,-3.3049,-3.2997,-3.2994,-3.2995,-3.3004,-3.3145,-3.318,-3.3271,-3.3094,-3.3096,-3.3098,0,-3.3362,-3.3345,-3.3379,-3.3332,-3.3331,-3.3343,-3.3323,-3.3321,-3.3291,-3.3266,-3.3252,-3.3202,-3.3214,-3.3157,-3.3173,-3.3138,-3.3135,-3.3117,-3.3119,-3.3115,-3.3051,-3.3145,-3.3298,-3.3312,-3.3115,-3.3114,-3.3113,0,-3.3479,-3.3465,-3.3483,-3.3472,-3.3418,-3.3429,-3.3407,-3.3374,-3.3367,-3.3351,-3.3346,-3.3331,-3.3323,-3.3314,-3.3263,-3.3225,-3.3286,-3.3223,-3.3266,-3.3267,-3.328,-3.328,-3.3435,-3.328,-3.3279,-3.3279,-3.3279,0,-3.3588,-3.3611,-3.3535,-3.3547,-3.3572,-3.351,-3.3537,-3.3508,-3.348,-3.3485,-3.3423,-3.3429,-3.3362,-3.3362,-3.3322,-3.3342,-3.3339,-3.332,-3.3309,-3.3325,-3.3327,-3.332,-3.3313,-3.3283,-3.3282,-3.3281,-3.3281,0,-3.3721,-3.3672,-3.3687,-3.3636,-3.3624,-3.3645,-3.3601,-3.3611,-3.3575,-3.3583,-3.3581,-3.3526,-3.3523,-3.3471,-3.3457,-3.343,-3.3467,-3.3444,-3.3477,-3.3469,-3.3515,-3.3511,-3.367,-3.3688,-3.3522,-3.3524,-3.3526,0,-3.3793,-3.381,-3.3761,-3.376,-3.3742,-3.3741,-3.3735,-3.3676,-3.3672,-3.3641,-3.3654,-3.3646,-3.3636,-3.3635,-3.3593,-3.3583,-3.3559,-3.3616,-3.3557,-3.3574,-3.356,-3.356,-3.3561,-3.3628,-3.363,-3.3632,-3.3633,0,-3.3926,-3.3902,-3.3894,-3.3879,-3.3874,-3.3859,-3.384,-3.3844,-3.3779,-3.3778,-3.3774,-3.3767,-3.3754,-3.3747,-3.3729,-3.3708,-3.3661,-3.3653,-3.3662,-3.3678,-3.3696,-3.3687,-3.351,-3.3649,-3.3647,-3.3646,-3.3645,-3.3644,-3.4031,-3.4043,-3.4011,-3.4006,-3.3986,-3.3971,-3.3978,-3.3944,-3.3939,-3.3923,-3.389,-3.3892,-3.3864,-3.3835,-3.3819,-3.382,-3.3791,-3.3805,-3.3808,-3.3812,-3.3821,-3.3697,-3.3817,-3.3816,-3.3816,-3.3815,-3.3815,0,-3.416,-3.4137,-3.4133,-3.411,-3.4106,-3.4063,-3.4041,-3.4041,-3.4044,-3.4021,-3.4014,-3.4011,-3.4004,-3.3964,-3.3954,-3.3963,-3.3941,-3.3962,-3.3961,-3.3957,-3.3847,-3.384,-3.398,-3.398,-3.398,-3.398,-3.398,-3.398,-3.4227,-3.4246,-3.4218,-3.4227,-3.4203,-3.4204,-3.4196,-3.4183,-3.4165,-3.4164,-3.4159,-3.4133,-3.4104,-3.4091,-3.4085,-3.4073,-3.4072,-3.4101,-3.4082,-3.398,-3.3964,-3.3949,-3.3942,-3.4101,-3.4101,-3.4191,-3.4192,-3.4193]},{"header":{"parameterUnit":"m.s-1","parameterCategory":1,"la1":30.2991,"la2":30.254,"lo1":-89.0895,"lo2":-89.0444,"dy":0.0017,"dx":0.0017,"nx":28,"ny":28,"refTime":"2025-06-22T09:00:00:Z","depth":0,"parameterNumber":3,"parameterNumberName":"V-component_of_WINDS"},"data":[0,0,0,0,0,0,0,0,0,0,0,0,0,0,0,0,0,0,0,0,0,0,0,0,0,0,0,0,0,0,0,0,0,0,0,0,0,0,0,0,0,0,0,0,0,0,0,0,0,0,0,0,0,0,0,0,0,0,1.4887,1.4888,0,1.4943,1.4944,1.4944,1.501,1.5011,1.5012,1.5013,1.5067,1.5067,1.5068,0,0,0,0,0,0,0,0,0,0,0,0,0,1.4835,1.4836,1.4887,1.4888,1.4889,1.4943,1.4944,1.4944,1.501,1.5011,1.5013,1.5014,1.5067,1.5067,1.5068,0,0,0,0,0,0,0,0,0,0,0,0,0,1.4871,1.4836,1.4887,1.4928,1.4932,1.4943,1.4944,1.4945,1.501,1.5011,1.5013,1.5014,1.5067,1.5067,1.5068,1.5041,0,0,1.507,1.507,0,0,0,0,0,0,0,0,1.4869,1.4873,1.4921,1.4925,1.493,1.4971,1.4945,1.4977,1.501,1.498,1.5013,1.5015,1.5034,1.5037,1.5044,1.5044,1.5046,1.507,1.5071,1.5071,1.5071,0,0,0,0,0,0,0,1.4866,1.4871,1.4909,1.4922,1.4927,1.4943,1.495,1.4951,1.4998,1.4983,1.4988,1.4994,1.5036,1.5043,1.5046,1.5047,1.507,1.5071,1.5071,1.5072,1.5027,1.5026,0,0,0,0,0,0,1.4858,1.4868,1.4907,1.4911,1.4903,1.4942,1.495,1.4956,1.4998,1.5006,1.4992,1.4997,1.5041,1.5045,1.5048,1.5019,1.5071,1.5072,1.5072,1.5029,1.5027,1.5025,0,0,0,0,0,0,1.4857,1.4861,1.4905,1.4891,1.4898,1.4942,1.4948,1.4957,1.4964,1.5005,1.5013,1.4991,1.5043,1.5047,1.5043,1.5022,1.5072,1.5073,1.5031,1.5028,1.5026,1.496,0,0,0,0,0,0,1.4855,1.486,1.4851,1.489,1.4898,1.4899,1.4947,1.4957,1.4965,1.4971,1.5006,1.5013,1.5044,1.5041,1.5043,1.5023,1.5073,1.5033,1.503,1.5027,1.4965,1.4956,1.4949,0,0,0,0,0,1.4853,1.483,1.485,1.4855,1.4888,1.4898,1.4903,1.494,1.4963,1.4954,1.4981,1.5012,1.5024,1.504,1.5043,1.5023,1.5034,1.503,1.5027,1.4968,1.4958,1.4949,0,0,0,0,0,0,1.4786,1.4836,1.4859,1.4848,1.4868,1.4909,1.4899,1.4928,1.4941,1.4946,1.4991,1.4998,1.4988,1.5006,1.5023,1.4999,1.5034,1.503,1.4988,1.4978,1.4971,1.4966,1.5074,0,0,0,0,0,1.477,1.4775,1.4818,1.4804,1.4813,1.4854,1.486,1.4887,1.491,1.4918,1.4944,1.4964,1.4972,1.4977,1.4987,1.4968,1.4976,1.4956,1.4948,1.4941,1.4937,1.4928,1.4919,1.5013,1.5013,1.5013,0,0,1.4736,1.4764,1.4765,1.4791,1.481,1.4813,1.4861,1.4862,1.4865,1.4918,1.4915,1.4935,1.496,1.4949,1.4945,1.4963,1.4913,1.4937,1.4931,1.4931,1.4923,1.4914,1.4906,1.5011,1.5011,1.5012,0,0,1.4677,1.4699,1.469,1.4708,1.4737,1.4765,1.4762,1.4799,1.4814,1.4813,1.4853,1.4856,1.487,1.4886,1.4895,1.4843,1.4872,1.4845,1.4803,1.4793,1.4785,1.4779,1.4759,1.4751,1.4841,1.4841,1.4841,0,1.4632,1.4639,1.4681,1.468,1.469,1.474,1.473,1.4746,1.4776,1.4781,1.4801,1.4819,1.484,1.4832,1.4819,1.4826,1.4824,1.484,1.4783,1.4777,1.4772,1.4753,1.4745,1.4838,1.4838,1.4838,1.4839,0,1.4581,1.4585,1.4574,1.4603,1.4612,1.4606,1.4647,1.465,1.4677,1.4702,1.4699,1.4726,1.4742,1.4742,1.4768,1.4738,1.4748,1.4775,1.481,1.4759,1.4742,1.4735,1.4832,1.4834,1.4835,1.4836,0,0,1.4479,1.4532,1.4527,1.454,1.4576,1.458,1.4576,1.4593,1.4594,1.4614,1.4611,1.4622,1.4647,1.4658,1.4686,1.4678,1.4633,1.4706,1.4708,1.469,1.46,1.4578,1.4569,1.4653,1.4652,1.4651,1.4597,0,1.4425,1.4423,1.4461,1.4447,1.4451,1.4499,1.4496,1.4517,1.454,1.4546,1.4572,1.4578,1.4612,1.4619,1.4613,1.4639,1.4615,1.4644,1.4649,1.4649,1.464,1.456,1.4537,1.4485,1.4591,1.459,1.4589,0,1.4361,1.4377,1.4364,1.4401,1.4404,1.44,1.4418,1.4424,1.4448,1.4466,1.4479,1.4511,1.4509,1.4544,1.4541,1.456,1.4565,1.4578,1.4577,1.4577,1.4614,1.4557,1.4469,1.4461,1.4579,1.458,1.4581,0,1.4286,1.4305,1.43,1.431,1.4352,1.4348,1.4366,1.4392,1.4399,1.4415,1.442,1.4435,1.4443,1.4453,1.4488,1.4511,1.4481,1.4519,1.4494,1.4493,1.4484,1.4484,1.4394,1.449,1.449,1.449,1.449,0,1.422,1.421,1.4267,1.4263,1.4253,1.4297,1.4285,1.4307,1.433,1.4331,1.4374,1.4373,1.4421,1.4425,1.4453,1.4446,1.4449,1.4462,1.4469,1.4457,1.4455,1.446,1.4463,1.4488,1.4488,1.4489,1.4489,0,1.4134,1.4172,1.4169,1.421,1.422,1.421,1.4244,1.4242,1.4269,1.4269,1.4272,1.4313,1.4321,1.4358,1.4374,1.4393,1.4375,1.439,1.4367,1.4371,1.4344,1.4345,1.4252,1.4241,1.4345,1.4344,1.4343,0,1.4089,1.4082,1.4123,1.4127,1.4142,1.4148,1.4156,1.42,1.4206,1.4234,1.4228,1.4239,1.425,1.426,1.4291,1.4304,1.4318,1.4285,1.432,1.4308,1.4316,1.4315,1.4314,1.4277,1.4275,1.4274,1.4273,0,1.4004,1.4023,1.4034,1.405,1.4059,1.4074,1.4092,1.4092,1.414,1.4145,1.4154,1.4163,1.418,1.419,1.4208,1.4225,1.4256,1.4263,1.4257,1.4244,1.423,1.4235,1.4344,1.4264,1.4265,1.4265,1.4266,1.4266,1.3936,1.3932,1.396,1.397,1.3988,1.4003,1.4003,1.403,1.4039,1.4056,1.4081,1.4087,1.4111,1.4139,1.4153,1.4157,1.4175,1.4168,1.4166,1.4163,1.4156,1.4231,1.4161,1.4161,1.4161,1.4162,1.4162,0,1.3852,1.3872,1.3881,1.3905,1.3912,1.3944,1.3965,1.3968,1.3973,1.3994,1.4004,1.4014,1.4025,1.4057,1.407,1.4067,1.4082,1.4069,1.4068,1.4072,1.414,1.4142,1.4057,1.4057,1.4057,1.4057,1.4057,1.4057,1.3809,1.3803,1.3826,1.3829,1.385,1.3856,1.3865,1.388,1.3897,1.3906,1.3915,1.3936,1.3961,1.3977,1.3988,1.3997,1.3999,1.3981,1.3994,1.4057,1.4067,1.4076,1.4079,1.3981,1.3981,1.3926,1.3925,1.3925]}]]